CAPE
112 217 201 350 290 157 87 35 0 0 20 0 0 0 11 0 307 493 758 726 931 842 897 713 862 644 900 816 1096 1186 1033 913 297 733 509 324 210 334 311 530 577 718 839
102 156 173 303 252 142 78 43 52 28 84 45 16 13 31 193 313 319 704 777 847 559 802 714 734 511 930 768 916 1252 1199 984 506 1291 384 591 453 273 172 111 267 471 492
160 220 164 242 151 90 72 71 106 89 98 185 200 219 345 408 429 292 604 888 917 556 615 676 619 1013 861 754 988 1301 1298 1503 1233 575 895 818 486 229 138 606 731 810 730
94 151 166 208 93 90 76 77 96 116 114 279 243 297 399 467 395 263 473 645 845 826 679 871 754 1045 950 844 1328 1531 1405 1398 1584 1272 682 550 644 931 808 923 1317 1445 1215
42 109 146 177 71 99 105 117 83 75 180 352 224 239 278 202 268 356 519 582 630 661 1008 872 783 756 731 819 1293 1103 1491 1711 1714 1344 1136 900 110 219 909 1386 1722 1872 1292
6 28 63 19 22 18 119 152 90 73 171 254 148 96 153 152 330 366 490 567 626 668 443 794 810 598 478 596 1189 1215 1252 1557 1345 1674 1241 1148 1234 659 1128 854 981 1155 1403
32 17 2 57 44 107 171 197 148 164 214 288 108 54 76 102 237 342 515 476 544 673 745 736 652 612 648 501 1192 1140 1262 1528 1335 1699 1467 1279 1317 1087 338 408 915 1241 1099
71 22 63 18 58 129 214 222 165 165 337 404 393 53 4 42 99 220 442 548 508 653 770 799 620 679 723 782 1111 1168 1167 1289 1294 1344 1485 1507 1469 1331 367 258 1135 1561 1524
162 78 51 230 50 75 259 218 127 119 289 349 372 83 0 0 21 155 282 473 467 544 598 771 1048 929 988 870 972 1092 1274 1137 1130 1355 1113 1339 1486 1398 1135 1058 1055 1328 1648
227 219 165 327 153 84 129 359 161 122 240 291 308 153 21 31 107 113 167 469 446 465 479 693 928 1066 1012 989 951 1021 963 1083 1159 1065 1384 1256 1497 1427 1244 1223 1022 958 1132
206 134 170 233 136 148 259 597 265 97 243 330 302 296 284 255 93 7 26 153 451 369 402 355 578 785 867 780 930 963 813 1016 1030 1132 1332 1290 1039 1687 1318 1339 1222 1450 1262
41 133 139 230 120 74 70 19 0 2 0 0 24 3 53 170 515 502 245 95 194 195 365 333 297 713 808 913 936 1071 1160 1060 1021 937 935 1136 1160 1294 1159 1174 1388 1421 1231
13 85 77 86 68 27 12 1 1 3 0 0 0 0 1 40 209 474 692 750 477 244 86 33 81 198 322 542 852 981 983 1003 919 900 963 900 1125 1304 997 854 1008 996 1040
3 1 18 29 20 2 18 23 22 6 5 4 1 0 2 2 38 234 548 752 620 400 237 60 0 36 63 55 358 784 869 813 852 899 1037 927 1225 1461 1535 1260 1417 1346 1382
3 2 1 4 1 1 15 4 12 1 3 10 32 3 2 4 3 22 41 86 388 501 436 291 230 78 22 3 62 565 1090 1174 1186 1205 1165 1211 1104 864 1053 1550 2027 1541 1681
1 0 1 2 2 3 6 2 2 0 0 1 2 0 0 1 4 4 2 1 18 75 138 114 297 695 667 21 290 162 870 921 933 1008 1151 1050 647 771 594 334 173 722 1631
0 0 3 3 3 2 7 4 4 3 0 0 0 0 0 0 0 1 3 4 3 1 2 2 0 86 2 1 1 0 358 729 934 973 1044 944 817 865 986 710 238 76 0
0 0 0 2 1 1 0 0 2 1 0 0 0 0 0 0 0 0 0 0 0 0 0 2 3 0 1 0 0 1 60 151 166 129 151 332 525 508 376 664 807 897 914
0 0 0 0 0 0 0 0 0 0 0 0 0 0 0 0 0 0 0 0 0 0 0 0 0 2 1 0 1 0 2 73 120 171 227 272 390 1 0 137 506 644 743
0 0 0 0 0 0 0 0 0 0 0 0 0 0 0 0 0 0 0 0 0 0 0 0 0 0 4 0 0 0 4 38 97 176 42 1 0 1 0 0 0 108 315
0 0 0 0 0 0 0 0 0 0 0 0 0 0 0 0 0 0 0 0 0 0 0 0 0 0 0 0 0 0 0 0 0 0 1 4 0 0 0 0 0 0 0
0 0 0 0 0 0 0 0 0 0 0 0 0 0 0 0 0 0 0 0 0 0 0 0 0 0 0 0 0 0 0 0 0 0 0 0 0 0 0 0 0 0 0
0 0 0 0 0 0 0 0 0 0 0 0 0 0 0 0 0 0 0 0 0 0 0 0 0 0 0 0 0 0 0 0 0 0 0 0 0 0 0 0 0 0 0
0 0 0 0 0 0 0 0 0 0 0 0 0 0 0 0 0 0 0 0 0 0 0 0 0 0 0 0 0 0 0 0 0 0 0 0 0 0 0 0 0 0 0
0 0 0 0 0 0 0 0 0 0 0 0 0 0 0 0 0 0 0 0 0 0 0 0 0 0 0 0 0 0 0 0 0 1 0 0 0 0 0 0 0 0 7
0 0 0 0 0 0 0 0 0 0 0 0 0 0 0 0 0 0 0 0 0 0 0 0 0 0 0 0 0 0 1 0 0 0 0 0 0 0 0 0 0 1 0
CIN
-122 -133 -148 -121 -119 -157 -176 -228 0 0 -257 0 0 0 -203 0 -153 -157 -134 -141 -127 -146 -163 -183 -165 -199 -162 -178 -171 -175 -194 -182 -392 -247 -278 -351 -454 -396 -418 -440 -377 -351 -304
-142 -150 -151 -118 -133 -162 -166 -224 -268 -282 -216 -243 -66 -68 -240 -172 -160 -169 -121 -123 -128 -154 -154 -168 -161 -196 -158 -172 -176 -179 -166 -198 -348 -173 -340 -224 -263 -381 -435 -543 -443 -398 -433
-123 -135 -152 -166 -154 -168 -195 -204 -243 -255 -210 -163 -179 -190 -141 -121 -111 -142 -107 -98 -100 -130 -149 -159 -181 -147 -172 -162 -168 -155 -163 -132 -195 -338 -222 -183 -184 -393 -468 -346 -387 -378 -387
-125 -145 -158 -169 -211 -190 -207 -201 -229 -259 -217 -163 -154 -128 -115 -92 -125 -138 -136 -109 -95 -107 -137 -130 -155 -140 -161 -160 -143 -146 -164 -172 -143 -202 -306 -359 -322 -182 -158 -356 -324 -319 -272
-137 -132 -177 -186 -229 -204 -217 -225 -219 -268 -200 -165 -170 -140 -139 -181 -194 -170 -124 -113 -109 -113 -92 -119 -144 -159 -180 -171 -139 -152 -160 -158 -141 -184 -221 -277 -493 -449 -235 -129 -152 -206 -264
-145 -173 -179 -192 -208 -201 -170 -217 -225 -220 -227 -193 -202 -207 -163 -170 -128 -130 -122 -111 -114 -112 -131 -115 -135 -164 -178 -161 -138 -159 -164 -158 -174 -154 -199 -225 -203 -318 -251 -240 -251 -238 -206
-128 -130 -46 -146 -177 -204 -160 -177 -216 -187 -193 -180 -207 -227 -218 -211 -147 -150 -132 -131 -117 -112 -108 -123 -136 -157 -148 -170 -123 -147 -146 -137 -156 -130 -145 -196 -217 -278 -440 -391 -280 -231 -240
-96 -153 -120 -136 -148 -177 -157 -139 -210 -183 -148 -132 -137 -216 -63 -288 -249 -185 -150 -142 -138 -121 -117 -124 -150 -139 -136 -138 -128 -126 -136 -147 -149 -138 -143 -138 -157 -195 -344 -339 -171 -125 -178
-39 -103 -144 -103 -181 -169 -153 -159 -199 -210 -143 -125 -128 -206 0 0 -271 -215 -182 -151 -161 -134 -127 -122 -101 -112 -111 -124 -126 -120 -104 -129 -145 -139 -171 -143 -136 -152 -193 -217 -211 -131 -68
-31 -58 -90 -63 -141 -190 -193 -127 -179 -178 -146 -113 -130 -186 -119 -114 -235 -226 -204 -157 -165 -162 -162 -133 -109 -92 -99 -107 -117 -105 -114 -105 -116 -134 -132 -147 -136 -143 -151 -155 -185 -205 -143
-133 -93 -91 -76 -144 -194 -178 -88 -148 -204 -141 -103 -123 -141 -150 -159 -213 -97 -298 -214 -162 -189 -185 -190 -156 -121 -111 -116 -100 -100 -105 -87 -98 -104 -99 -110 -156 -107 -143 -135 -139 -119 -134
-119 -84 -80 -37 -108 -146 -207 -265 -14 -13 0 -1 -216 -12 -184 -172 -118 -134 -190 -239 -194 -215 -203 -193 -183 -109 -100 -89 -86 -74 -64 -75 -77 -83 -99 -89 -101 -112 -139 -128 -102 -100 -115
-122 -120 -54 -12 -57 -121 -221 0 0 -42 0 -3 0 0 0 -221 -153 -119 -133 -121 -149 -187 -243 -281 -258 -197 -156 -119 -93 -86 -83 -77 -84 -86 -90 -89 -88 -84 -111 -120 -100 -104 -99
0 0 -155 -44 -17 0 -64 -60 -85 -89 0 -106 0 0 0 0 -210 -156 -110 -114 -142 -162 -189 -270 0 -226 -232 -211 -138 -101 -93 -96 -79 -88 -87 -104 -79 -69 -68 -78 -79 -78 -73
0 0 0 -28 -27 0 -110 -25 -56 0 -143 -120 -165 0 0 0 0 -223 -227 -208 -143 -127 -138 -160 -170 -224 -177 -50 -193 -113 -75 -72 -72 -69 -75 -75 -79 -93 -85 -48 -51 -66 -49
0 0 0 0 0 0 -120 -190 0 0 0 0 0 0 0 0 0 0 0 0 -94 -183 -184 -190 -141 -85 -69 -75 -147 -174 -68 -72 -70 -62 -67 -79 -104 -92 -100 -142 -182 -117 -43
0 0 0 0 0 0 0 0 0 0 0 0 0 0 0 0 0 0 0 0 0 0 0 0 0 -106 0 0 0 0 -121 -85 -73 -67 -64 -72 -61 -87 -92 -113 -168 -46 0
0 0 0 0 0 0 0 0 0 0 0 0 0 0 0 0 0 0 0 0 0 0 0 0 0 0 0 0 0 0 -168 -141 -149 -173 -164 -126 -117 -119 -156 -110 -97 -92 -95
0 0 0 0 0 0 0 0 0 0 0 0 0 0 0 0 0 0 0 0 0 0 0 0 0 0 0 0 0 0 0 -155 -126 -117 -113 -113 -97 0 0 -85 -103 -100 -101
0 0 0 0 0 0 0 0 0 0 0 0 0 0 0 0 0 0 0 0 0 0 0 0 0 0 -179 0 0 0 0 -125 -94 -89 -99 0 0 0 0 0 0 -156 -126
0 0 0 0 0 0 0 0 0 0 0 0 0 0 0 0 0 0 0 0 0 0 0 0 0 0 0 0 0 0 0 0 0 0 0 0 0 0 0 0 0 0 0
0 0 0 0 0 0 0 0 0 0 0 0 0 0 0 0 0 0 0 0 0 0 0 0 0 0 0 0 0 0 0 0 0 0 0 0 0 0 0 0 0 0 0
0 0 0 0 0 0 0 0 0 0 0 0 0 0 0 0 0 0 0 0 0 0 0 0 0 0 0 0 0 0 0 0 0 0 0 0 0 0 0 0 0 0 0
0 0 0 0 0 0 0 0 0 0 0 0 0 0 0 0 0 0 0 0 0 0 0 0 0 0 0 0 0 0 0 0 0 0 0 0 0 0 0 0 0 0 0
0 0 0 0 0 0 0 0 0 0 0 0 0 0 0 0 0 0 0 0 0 0 0 0 0 0 0 0 0 0 0 0 0 0 0 0 0 0 0 0 0 0 0
0 0 0 0 0 0 0 0 0 0 0 0 0 0 0 0 0 0 0 0 0 0 0 0 0 0 0 0 0 0 0 0 0 0 0 0 0 0 0 0 0 0 0
Wind_Speed
10 10 11 9 9 7 7 7 8 7 5 3 3 2 2 1 1 2 4 4 3 3 4 3 2 1 3 2 3 2 3 2 3 2 2 2 3 3 3 3 3 5 6
8 10 11 9 9 10 8 6 8 9 6 3 3 3 3 2 1 1 2 3 3 4 4 4 3 1 2 3 3 4 2 2 3 2 1 4 4 3 3 3 3 4 3
12 12 13 12 9 9 10 9 10 10 7 5 3 3 3 3 2 1 1 3 4 4 3 4 4 3 1 1 2 2 4 2 2 3 2 2 1 3 3 4 3 4 3
5 8 12 12 13 11 8 7 6 9 6 6 5 5 4 4 3 3 2 2 4 4 4 3 3 3 2 2 0 1 2 2 3 1 3 3 1 1 4 3 3 4 5
7 11 12 15 12 11 10 9 6 6 6 6 5 5 4 2 2 2 5 3 2 2 3 4 4 3 2 2 2 1 4 2 2 2 1 2 3 3 1 2 4 3 4
4 5 2 4 5 5 6 7 8 6 7 6 6 6 6 5 3 3 3 3 2 1 2 3 3 3 2 2 1 2 4 3 3 2 3 2 2 0 1 2 2 2 3
2 2 7 7 7 7 7 7 10 7 6 7 6 6 6 6 6 4 4 4 2 2 3 4 4 2 2 3 2 1 3 2 2 3 2 2 2 2 2 1 0 2 2
2 2 2 4 6 7 6 6 9 7 7 6 6 4 6 3 3 4 3 4 3 3 4 4 4 3 3 3 3 1 0 2 2 3 3 2 2 1 2 2 1 1 2
6 4 3 1 4 7 8 6 5 6 7 6 5 5 4 5 4 4 3 3 3 3 3 4 4 4 4 4 3 2 2 1 1 1 1 1 0 1 1 0 1 2 1
9 3 3 3 0 4 6 7 7 7 5 5 5 5 4 4 3 3 5 5 4 3 4 4 4 5 4 4 4 2 1 2 1 1 2 1 1 1 1 0 0 1 2
9 8 5 4 2 2 4 6 8 9 7 5 4 5 4 4 4 4 4 4 3 4 4 4 4 5 5 5 4 4 3 3 2 1 2 2 1 1 1 0 0 0 1
4 4 1 7 8 4 4 4 5 7 5 5 5 3 2 1 4 5 5 5 5 4 5 4 3 4 5 5 5 5 4 5 4 3 3 4 2 2 2 1 2 2 2
5 4 4 3 7 8 6 4 8 12 6 5 6 5 5 3 3 5 5 5 4 3 3 4 5 5 5 5 5 5 5 5 5 5 5 4 4 3 2 2 2 1 1
5 3 4 6 6 10 8 6 5 8 7 5 7 8 5 5 4 3 3 3 3 3 4 3 4 4 4 5 4 4 5 4 5 5 5 5 5 5 4 4 4 3 3
5 3 1 4 10 9 9 6 7 6 6 3 7 6 6 6 5 3 3 4 4 2 3 3 4 4 4 5 5 6 6 5 5 5 5 5 6 7 7 4 5 2 2
7 6 5 5 7 9 9 8 8 6 5 7 10 7 6 6 7 5 5 7 7 6 6 6 4 3 2 9 4 5 5 5 5 5 5 5 5 7 9 9 10 7 5
10 9 8 8 10 11 8 9 9 8 12 10 9 8 5 6 6 6 5 6 6 5 6 6 7 7 5 7 9 6 4 4 4 5 6 6 4 5 5 6 7 8 11
11 11 9 10 11 12 13 12 10 10 10 9 8 6 6 7 6 5 4 5 3 6 4 5 4 4 3 4 6 7 3 2 3 4 5 6 6 4 4 5 6 6 6
8 9 11 12 12 12 11 12 10 9 10 8 7 6 5 6 5 6 5 5 3 3 3 3 5 4 4 4 5 4 3 3 4 3 4 4 4 7 5 4 5 7 8
10 8 12 11 11 8 10 11 8 8 8 6 5 5 5 6 5 4 4 2 2 4 4 4 4 5 6 10 9 5 3 5 5 5 3 8 6 5 8 6 4 5 6
10 10 8 11 8 7 10 10 8 8 6 6 6 6 5 6 5 5 4 5 6 6 6 7 5 4 6 6 10 11 5 4 4 4 3 2 4 7 9 5 5 5 8
9 8 10 8 6 6 10 9 9 4 5 7 7 7 6 6 6 8 7 8 8 8 7 6 6 6 6 8 8 10 6 6 4 4 4 4 7 6 7 5 7 8 7
7 6 10 8 6 6 8 10 3 5 6 7 7 7 7 7 7 8 7 6 7 6 6 6 6 6 7 7 12 11 14 9 4 4 6 8 9 7 5 6 8 5 2
8 7 9 8 6 5 7 7 5 5 7 8 7 6 7 7 8 6 6 7 6 6 7 7 7 6 7 9 9 8 7 7 5 6 5 5 7 5 5 5 4 4 4
7 7 8 8 7 6 6 5 5 6 7 6 6 6 6 7 6 7 6 6 4 4 4 5 5 6 7 8 8 6 7 6 7 8 3 3 3 5 5 5 5 5 5
7 7 6 8 7 6 5 5 5 6 6 6 5 5 5 4 5 5 5 7 8 8 7 5 1 4 3 8 12 12 11 9 10 3 4 6 6 6 7 5 4 3 6
Wind_Direction
176 162 153 153 152 155 169 175 152 157 149 141 133 129 168 182 225 172 151 173 170 147 136 127 88 105 95 61 2 345 19 14 7 20 353 323 313 308 304 301 294 289 297
148 160 159 157 167 168 186 189 162 166 170 160 156 148 146 174 145 120 168 198 174 191 152 141 149 126 92 53 38 38 354 8 16 83 73 8 335 346 357 355 354 343 315
175 168 174 168 170 179 188 194 176 173 173 171 122 86 96 89 100 139 221 191 178 197 181 166 153 129 88 102 68 58 52 5 17 44 119 59 306 323 336 359 337 353 351
216 180 171 181 179 193 184 182 196 168 173 172 164 157 160 156 181 171 171 199 196 193 182 173 159 143 183 121 4 104 82 77 26 2 53 69 132 34 343 333 336 354 17
217 197 187 191 186 181 189 177 185 175 164 180 181 157 156 157 152 141 143 176 192 205 222 182 160 152 170 136 142 114 73 65 68 44 8 74 68 56 72 341 338 350 24
325 209 180 158 179 176 186 167 165 197 169 167 185 180 167 169 153 146 161 180 160 191 196 127 154 152 153 160 177 115 88 79 71 59 56 61 94 67 50 46 332 309 333
333 153 178 181 177 169 182 177 170 179 182 165 176 180 180 186 185 178 168 167 160 187 193 166 173 173 190 177 180 126 99 72 72 46 44 44 84 145 110 134 139 338 316
197 160 107 193 182 167 172 194 177 169 172 175 187 185 182 173 191 187 189 179 184 196 172 181 179 180 199 197 168 142 107 95 70 69 55 36 19 51 157 156 144 6 345
206 174 201 359 192 170 180 175 168 163 180 181 167 165 187 189 207 202 193 196 184 190 195 195 189 186 186 194 178 184 148 108 65 81 77 61 28 13 44 101 170 137 13
194 187 189 192 347 194 169 163 155 173 158 160 169 169 177 196 191 187 219 201 195 187 187 200 201 196 192 185 177 189 203 183 206 184 133 79 82 335 349 71 270 137 141
192 215 209 165 98 22 145 152 155 152 144 153 164 163 168 185 190 177 214 251 207 198 211 198 217 207 200 182 187 188 191 219 211 230 255 262 191 185 285 241 259 81 136
143 144 160 206 171 132 126 126 121 108 102 116 87 46 61 221 208 188 190 211 230 239 211 190 221 223 200 194 201 202 193 199 219 214 219 249 238 244 229 232 213 201 199
134 151 168 145 157 138 103 112 125 108 108 99 90 63 30 14 310 265 211 196 203 200 233 218 202 201 210 210 221 217 212 209 228 232 216 220 214 239 239 242 271 250 217
132 144 160 138 141 128 130 141 134 112 104 67 75 62 29 5 338 329 249 206 185 178 193 208 248 232 208 217 226 229 242 230 235 231 228 235 235 250 254 254 262 269 277
128 126 104 130 128 115 97 109 122 112 96 117 77 60 41 21 19 25 79 85 84 115 199 207 223 231 231 236 221 218 227 235 251 253 247 246 244 238 243 256 273 251 276
114 116 109 79 94 105 115 94 135 96 82 71 53 48 44 30 23 19 39 79 75 63 77 65 42 348 326 352 298 257 249 236 240 263 272 267 265 258 254 240 241 238 248
111 92 81 92 101 99 97 86 89 84 67 64 56 49 35 56 49 12 22 70 76 80 66 63 63 59 65 26 11 342 250 246 246 254 268 282 274 268 276 273 253 237 218
116 104 97 85 76 83 86 90 81 82 77 69 62 48 44 42 39 48 29 46 49 73 69 67 65 76 61 29 20 351 21 332 292 274 272 270 280 299 300 296 293 284 279
100 106 106 101 95 91 88 82 78 75 78 69 69 55 53 57 47 38 17 37 6 59 49 66 72 34 40 355 12 5 6 355 323 306 290 288 302 359 334 279 276 284 281
111 106 111 105 98 100 105 99 93 87 78 73 61 60 59 52 41 32 36 360 352 30 34 47 36 79 48 30 41 28 6 18 359 338 75 62 62 6 6 347 326 293 286
113 115 100 105 102 107 104 89 89 76 75 74 67 55 50 65 37 41 33 26 33 47 32 32 33 58 53 53 27 7 19 26 13 354 349 348 337 328 319 312 297 284 323
108 106 103 96 95 97 98 92 77 65 77 78 69 57 47 56 56 60 43 38 38 39 36 30 24 17 20 29 13 10 358 9 353 321 309 314 318 316 309 291 265 276 292
113 105 109 99 68 78 98 97 85 83 77 68 56 53 59 54 52 58 54 57 45 41 33 32 30 12 6 20 14 7 356 333 292 285 300 309 306 322 330 319 313 309 314
129 130 119 109 96 83 88 102 108 92 83 76 59 49 53 46 40 47 47 52 43 36 35 28 22 11 15 15 2 0 351 333 327 310 296 291 285 305 312 326 342 354 348
144 145 136 133 133 128 113 114 110 103 91 84 75 63 56 47 43 41 38 47 46 43 41 30 15 16 20 1 339 333 347 339 327 314 297 326 328 331 334 333 332 344 15
152 141 143 141 145 137 131 127 117 111 108 94 87 79 74 64 60 54 38 13 26 26 44 45 8 19 359 335 346 351 350 347 340 311 334 332 326 317 313 306 313 338 359